Regional Weather Roundup
Issued by NWS Newport/Morehead, NC

Current Version | Previous Version | Graphics & Text | Print | Product List | Glossary Off
Versions: 1 2 3 4 5 6 7 8 9 10 11 12 13 14 15 16 17 18 19 20 21 22 23 24 25 26 27 28 29 30 31 32 33 34 35 36 37 38 39 40 41 42 43 44 45 46 47 48 49 50

000
ASUS42 KMHX 281422
RWRMHX
WEATHER ROUNDUP FOR EASTERN NORTH CAROLINA
NATIONAL WEATHER SERVICE NEWPORT/MOREHEAD CITY NC
1000 AM EDT MON JUL 28 2014

NOTE: "FAIR" INDICATES FEW OR NO CLOUDS BELOW 12,000 FEET
WITH NO SIGNIFICANT WEATHER AND/OR OBSTRUCTIONS TO VISIBILITY

NCZ015>017-031-032-045>047-102-103-281500-
NORTH COAST

CITY           SKY/WX    TMP DP  RH WIND       PRES   REMARKS
EDENTON        SUNNY     84  68  59 W13       29.75R
ELIZABETH CITY MOSUNNY   84  69  60 SW15G21   29.73R
KITTY HAWK     MOSUNNY   85  69  59 W15G21    29.73S
MANTEO         NOT AVBL

$$

NCZ045>047-081-094-103-104-281500-
CENTRAL COAST

CITY           SKY/WX    TMP DP  RH WIND       PRES   REMARKS
FRISCO         CLOUDY    81  80  97 SW13      29.78S FOG
SWANQUARTER      N/A     82 N/A N/A W14G25    29.74S

$$

NCZ095-097-098-100-101-281500-
SOUTHERN COAST

CITY           SKY/WX    TMP DP  RH WIND       PRES   REMARKS
BEAUFORT       CLOUDY    84  76  76 SW14      29.80
CEDAR ISLAND     N/A     84 N/A N/A SW9G20    29.82S
JACKSONVILLE   CLOUDY    82  74  76 SW10G17   29.81R
NEWPORT        NOT AVBL
PINEY ISLAND   PTSUNNY   86  73  65 W18G24    29.79R
WILMINGTON     CLOUDY    83  74  74 W8        29.82S


$$

NCZ011>013-027>030-043-044-078>080-089-090>093-098-281500-
COASTAL PLAIN

CITY           SKY/WX    TMP DP  RH WIND       PRES   REMARKS
AHOSKIE        SUNNY     81  68  63 CALM      29.75S
CLINTON        MOSUNNY   82  71  69 SW7       29.82S
ELIZABETHTOWN  PTSUNNY   82  73  73 W5        29.83R
GOLDSBORO      MOSUNNY   83  70  65 W10       29.78S
GREENVILLE     PTSUNNY   82  68  61 W7        29.81R
HAVELOCK       CLOUDY    83  73  72 W10       29.81R
KENANSVILLE    MOSUNNY   81  67  62 SW8       29.82S
KINSTON        PTSUNNY   84  66  54 W9        29.81R
NEW BERN       CLOUDY    84  72  67 SW9       29.81R
RICHLANDS      CLOUDY    82  72  69 W8        29.81S
ROANOKE RAPIDS NOT AVBL
ROCKY MOUNT    SUNNY     83  66  56 W13G20    29.79R
WASHINGTON     MOSUNNY   82  68  60 W8        29.78S
WHITEVILLE     PTSUNNY   84  75  73 W5        29.83R

$$

AMZ130-135-150-152-154-156-158-170-250-252-270-ANZ085-086-088-633-658-670-281500-
MARINE OBSERVATIONS

STATION/POSITION TIME  TEMP    WIND        PRES    WAVE   SWELL
                       AIR SEA DIR/SP/G            HT/PER HT/PER
                 (UTC) (F)     (DEG/KT/KT) (MB)    (FT/S) (FT/S)
CHESAPEAKE LIGHT NOT AVBL
BUOY 44014       1400   81 78  240/ 17/ 21 1005.2    5/ 6   2/ 9
DUCK             1400   82 60  230/ 17/ 23 1005.9
2E DUCK          1400                        N/A     2/10
OREGON INLET     1400   83 81  230/ 19/ 22 1007.1
BUOY 44095       1400      78                N/A     4/ 6
20E OREGON INLET NOT AVBL
HATTERAS CG      1400   82 81  230/  9/ 15 1009.0
DIAMOND BUOY     1400          VRB 17/ 21  1008.4    6/ 7   2/ 8
CAPE LOOKOUT     1400   83     240/ 12/ 16 1009.2
BEAUFORT LAB     1400   83 82  250/  5/ 13 1009.2
30 SE NEW RIVER  1400   83 81  240/ 14/ 16 1009.7    6/ 6   3/ 8
5 SE WRIGHTSVILL 1400   80 82  260/ 10/ 12   N/A
BUOY 41002       1256   82 81  240/ 16/ 19 1015.1    6/ 6   2/ 9
BUOY 41004       1400   84 83  240/ 17/ 19 1011.0    4/ 6   2/10

$$



USA.gov is the U.S. government's official web portal to all federal, state and local government web resources and services.